Location: Plainartige
(45.6866°N, 1.7993°E)
Time: 18:32:28
(UTC+00:00)

deb r/b Ablestar - Pass Details

Date: 01 October 2021
Orbit: 843 x 997 km, 67.7° (Epoch: 21 October)

Event Time Altitude Azimuth Distance (km) Brightness Sun altitude
Rises 19:16:37 0° 332° (NNW) 3,413 ? -18.8°
Reaches altitude 10° 19:19:12 10° 339° (NNW) 2,480 ? -19.3°
Maximum altitude 19:24:36 42° 50° (NE) 1,204 ? -20.2°
Enters shadow 19:25:57 37° 84° (E) 1,325 ? -20.4°
